map of NST home
Great Circle Mapper logo
NST - Airport
Location
City:  Nakhon Si Thammarat, Thailand
ICAO / IATA:VTSF / NST

Details
Type:Airport (Aerodrome, Airfield)
Use:Public/Civil
Latitude:832'23"N (8.539617)
Longitude:9956'41"E (99.944725)
Datum:WGS 1984
Elevation:13 ft (4 m)
Variation:0.39W (WMM2015 magnetic declination)
0.01 annual change
Runways:1
Longest:6890 × 148 ft (2100 × 45 m), paved

Time
Time Zone:UTC+7
Local Time:

Weather
METAR:VTSF 290900Z 04008KT 9999 FEW020 32/23 Q1008 A2979 INFO J / RWY 19

Related Locations
Nearby:
Farthest:TRU: 12372 mi / 19911 km
Trujillo [Capitan Carlos Martinez de Pinillos], PE

Find:

   beyond  
but within

Other Information
Maps:
NOTAMs:
Links:
Sources:

  
flag of Thailand   

Sectional Chart

Flight Planning
at skyvector.com

Satellite Image

Google Maps Satellite View

 

Copyright © 2004-2015 Karl L. Swartz. All rights reserved.
The Great Circle Mapper name and logo are trademarks of the Great Circle Mapper.
All other trademarks mentioned herein belong to their respective owners.
Please see credits for attibutions and further copyright information.

  Follow gcmap on Facebook Follow gcmap on Twitter Follow gcmap on Google+

hCard Microformat

Geo Microformat